Lapse_Rate
-0.0 -0.3 -0.6 -1.0 -1.3 -1.5 -1.6 -1.6 -1.6 -1.5 -1.8 -2.3 -2.7 -3.0 -3.3 -3.8 -3.9 1.8 6.7 7.0 7.6 3.4 3.1 9.1 9.3 9.2 9.1 7.7 8.4 8.1 6.5 6.5 6.5 6.5 6.5 7.1 6.5 7.4 8.0 7.4 7.7 7.7 8.0 8.5 9.1
0.1 -0.3 -0.6 -1.2 -1.5 -1.7 -1.7 -1.8 -1.7 -1.8 -2.2 -2.4 -2.8 -3.1 -3.2 -3.7 2.1 7.9 6.8 4.4 3.6 3.3 8.0 8.7 8.3 8.6 7.7 7.6 7.4 6.6 6.5 6.5 6.5 6.5 6.5 6.8 6.3 7.0 7.0 7.0 7.2 7.5 8.4 8.8 9.0
-0.5 -0.5 -0.9 -1.3 -1.6 -1.9 -2.0 -2.3 -2.3 -2.2 -2.3 -2.6 -2.7 -2.9 -3.2 -2.8 6.2 8.4 2.5 3.3 3.2 3.7 8.2 9.2 8.9 8.3 7.2 7.5 7.1 6.8 6.5 6.5 6.7 7.0 7.2 6.8 6.6 6.3 6.7 6.5 7.2 7.2 7.9 8.5 8.6
-0.6 -0.9 -1.1 -1.5 -1.9 -2.2 -2.4 -2.4 -2.5 -2.7 -3.0 -3.0 -2.9 -2.8 -3.0 2.7 6.5 7.4 1.8 2.5 2.7 6.9 9.3 8.8 8.4 7.4 6.6 6.5 6.4 6.5 6.9 6.9 7.0 7.4 7.1 6.6 6.4 6.8 6.8 6.9 7.2 8.2 8.4 8.5 8.3
-0.5 -1.1 -1.5 -1.9 -2.3 -2.7 -3.0 -3.1 -3.4 -3.5 -3.6 -3.5 -3.4 -3.0 0.4 7.1 8.1 5.3 1.9 2.7 6.3 7.7 8.8 8.4 7.7 7.4 6.5 6.6 6.8 6.5 6.5 7.1 7.4 7.3 7.2 7.4 6.8 6.7 7.0 5.8 7.2 8.4 8.4 8.2 8.3
-0.6 -1.1 -1.8 -2.3 -2.7 -3.1 -3.5 -4.0 -4.2 -4.2 -4.2 -4.0 -3.8 -3.8 3.6 6.9 9.2 7.2 7.8 7.4 8.9 9.2 8.8 8.7 8.0 8.1 7.1 6.7 6.5 6.8 6.9 6.9 7.2 7.2 7.2 6.7 6.7 7.1 6.7 6.9 7.8 8.1 8.0 8.3 8.3
-0.8 -1.3 -1.9 -2.5 -3.0 -3.5 -4.2 -4.7 -4.9 -4.7 -4.5 -4.1 -3.8 0.4 7.6 8.0 9.9 9.8 9.9 9.5 9.6 9.3 8.6 8.9 8.8 7.9 7.7 6.5 7.5 7.1 6.5 6.5 6.7 6.9 6.6 7.1 6.5 6.5 6.5 5.5 7.5 7.7 7.9 7.8 8.2
-0.9 -1.5 -2.0 -2.7 -3.5 -4.4 -5.1 -5.5 -5.2 -4.9 -4.5 -4.2 -3.8 3.0 7.7 9.8 9.7 9.7 9.8 9.4 9.7 9.7 9.2 9.2 9.0 8.2 7.6 7.2 6.9 6.5 6.5 6.5 6.5 6.7 6.9 6.8 6.5 6.5 3.6 5.2 6.9 7.4 7.8 8.0 8.2
-0.9 -1.5 -2.0 -2.8 -3.8 -5.0 -5.8 -5.8 -4.6 -4.0 -4.1 -3.9 0.4 4.9 7.4 5.6 8.9 9.6 9.8 8.9 9.2 9.3 9.2 9.3 8.7 7.6 7.5 6.5 6.5 6.5 6.5 6.5 6.5 6.6 6.5 6.5 6.5 6.6 4.4 5.1 6.5 6.8 7.7 7.4 7.9
-1.2 -1.5 -2.2 -2.9 -3.8 -5.3 -6.4 -5.8 -3.6 -3.5 -1.3 3.0 5.7 7.9 8.4 7.9 9.0 9.3 9.7 9.3 8.6 8.5 8.1 8.0 7.6 6.5 6.5 6.5 6.5 6.5 6.5 6.5 6.5 6.5 6.5 6.5 6.5 6.5 7.2 7.1 6.2 5.2 6.7 7.6 7.6
-1.9 -2.2 -2.6 -3.0 -4.0 -5.4 -3.3 3.7 6.1 7.9 8.7 7.8 7.8 7.7 8.1 9.0 9.4 8.8 9.3 8.8 8.5 7.8 6.5 7.1 6.5 6.5 6.5 6.5 6.5 6.5 6.5 6.5 6.5 6.5 6.5 6.5 6.5 6.5 6.8 7.0 6.8 4.2 4.2 7.5 7.7
-2.1 -2.6 -3.0 -3.4 -4.5 -5.5 -2.6 8.3 8.6 8.9 7.1 8.4 8.5 8.4 8.7 8.9 7.6 8.3 9.2 7.5 7.1 6.5 6.6 6.5 6.5 6.5 6.5 6.5 6.5 6.5 6.5 6.5 6.5 6.5 6.5 6.5 6.5 6.5 6.7 6.8 6.6 5.7 5.6 7.1 7.8
-1.8 -2.4 -3.1 -3.9 -5.0 -2.6 7.1 9.0 10.0 9.7 7.1 7.6 8.4 8.1 8.2 8.6 7.4 7.6 8.5 7.8 6.6 6.5 6.5 6.5 6.5 6.5 6.5 6.5 6.5 6.5 6.5 6.5 6.5 6.5 6.5 6.5 6.5 6.5 6.5 7.0 7.0 7.0 7.0 6.7 6.7
-1.6 -2.3 -3.1 -5.8 0.8 8.4 8.8 9.8 10.0 9.8 6.5 6.5 6.9 7.7 8.3 8.3 6.8 8.6 8.8 7.8 6.6 6.5 6.5 6.5 6.6 6.5 6.5 6.5 6.5 6.5 6.5 6.5 6.5 6.5 6.5 6.5 6.5 6.5 6.5 6.5 6.5 7.1 7.3 4.2 7.6
-1.5 -2.1 -3.5 -4.2 3.9 7.8 9.3 10.1 10.0 9.1 6.5 6.5 6.8 9.0 8.4 7.3 7.4 7.4 8.8 7.9 6.5 6.5 6.5 6.5 6.5 6.5 6.5 6.5 6.5 6.5 6.5 6.5 6.5 6.5 6.5 6.5 6.5 6.5 6.5 6.5 6.5 6.7 7.2 7.2 7.5
-1.8 -2.0 -4.1 3.4 2.8 6.6 10.1 10.0 9.2 6.5 6.5 6.5 6.9 6.6 6.5 7.1 7.0 7.6 7.5 8.2 7.7 6.5 6.5 6.5 7.1 6.5 6.5 6.5 6.5 6.5 6.5 6.5 6.5 6.5 6.5 6.5 6.5 6.5 6.5 6.5 6.5 6.6 7.3 7.3 7.9
-2.4 -2.6 -3.5 3.5 8.3 9.9 10.0 8.9 6.5 6.5 6.5 6.5 6.5 6.5 6.5 6.5 6.5 6.5 6.5 6.5 6.5 6.5 6.5 6.5 6.5 6.5 6.6 6.5 6.5 6.5 6.5 6.5 6.5 6.5 6.5 6.5 6.5 6.5 6.5 6.5 6.5 6.5 5.2 7.1 7.1
-3.0 -4.0 1.6 4.6 9.4 9.7 9.3 6.7 6.5 6.5 6.5 6.5 6.5 6.5 6.5 6.5 6.5 6.5 6.5 6.5 6.5 6.5 6.5 6.5 6.5 6.5 6.5 6.5 6.5 6.5 6.5 6.5 6.5 6.5 6.5 6.5 6.5 6.5 6.5 6.8 7.3 7.4 7.3 7.5 7.4
-3.9 7.7 8.6 9.3 8.4 9.8 7.9 6.5 6.5 6.5 6.5 6.5 6.5 6.5 6.5 6.5 6.5 6.5 6.5 6.5 6.5 6.5 6.5 6.5 6.5 6.5 6.5 6.5 6.5 6.5 6.5 6.5 6.5 6.5 6.5 6.5 6.5 6.5 6.5 6.5 6.7 6.9 7.2 7.3 7.6
1.8 8.7 9.1 10.1 10.0 9.1 6.7 6.5 6.5 6.5 6.5 6.5 6.5 6.5 6.5 6.5 6.5 6.5 6.5 6.5 6.5 6.5 6.5 6.5 6.5 6.5 6.5 6.6 6.5 6.5 6.5 6.5 6.5 6.5 6.5 6.5 6.5 6.5 6.5 6.5 6.5 6.5 6.9 7.3 7.6
4.5 8.0 9.2 10.1 9.8 8.0 6.5 6.5 6.5 7.3 7.2 6.5 6.5 6.5 6.5 6.5 6.5 6.5 6.5 6.5 6.5 6.5 6.5 6.5 6.5 6.5 6.5 6.5 6.5 6.5 6.5 6.5 6.5 6.5 6.5 6.5 6.5 6.5 6.5 6.5 6.5 6.5 7.1 7.4 7.6
8.8 6.6 9.6 9.9 7.0 7.0 6.5 6.5 3.4 6.7 7.3 6.5 6.5 6.5 6.5 6.5 6.5 6.5 6.5 6.5 6.9 6.6 6.5 6.5 6.5 6.5 6.5 6.5 6.5 6.5 6.5 6.5 6.5 6.5 6.5 6.5 6.5 6.5 6.5 6.5 6.7 6.7 7.2 7.5 7.7
8.2 8.1 9.5 9.3 6.5 6.5 6.5 6.5 6.7 6.5 6.5 6.5 6.5 6.5 6.5 6.5 6.5 6.5 6.5 6.6 6.9 6.5 6.5 6.5 6.5 6.5 6.5 6.5 6.5 6.5 6.5 6.5 6.5 6.5 6.5 6.5 6.5 6.5 6.5 6.5 6.8 6.8 7.2 7.4 7.7
8.3 6.5 7.9 8.3 8.0 6.6 6.5 6.5 6.5 7.1 6.6 6.8 6.5 6.6 6.5 6.5 6.5 6.5 6.5 6.5 7.0 6.7 4.7 6.4 6.5 6.5 6.5 6.5 6.5 6.5 6.5 6.5 6.5 6.5 6.5 6.5 6.5 6.5 6.5 6.5 6.7 7.0 7.2 7.4 7.6
8.4 6.8 7.7 6.5 6.6 6.5 6.5 6.5 6.5 6.5 6.8 7.0 6.5 6.5 6.5 6.5 6.5 6.5 6.5 6.5 6.6 3.7 6.3 6.5 6.5 6.5 6.5 6.5 6.5 6.5 6.5 6.5 6.5 6.5 6.5 6.5 6.5 6.5 6.5 6.5 6.8 7.2 7.4 7.4 7.5
7.8 7.5 8.1 7.4 7.3 6.5 6.5 6.5 6.5 6.5 6.5 6.5 6.5 6.5 6.5 6.5 6.5 6.5 6.5 6.5 6.5 6.5 6.5 6.5 6.5 6.5 6.5 6.5 6.5 6.5 6.5 6.5 6.5 6.5 6.5 6.5 6.5 6.5 6.5 5.7 6.9 7.1 7.2 7.2 7.4
9.0 9.1 8.2 6.4 6.7 6.5 6.5 6.5 6.5 6.5 6.8 7.0 6.6 6.5 6.5 6.5 7.1 7.2 7.4 7.1 6.7 6.5 6.5 6.5 6.5 6.5 6.5 6.5 6.5 6.5 6.5 6.5 6.5 6.5 6.5 6.5 6.5 6.5 6.5 6.5 6.8 7.0 7.3 7.3 7.5
Wind_Speed
15 14 14 13 13 12 13 13 13 13 13 13 13 13 14 14 18 6 11 3 12 10 4 12 15 16 16 13 18 6 5 5 7 13 8 15 5 10 10 12 10 6 20 22 18
17 16 16 15 14 14 13 13 13 13 13 13 12 13 13 13 10 15 7 10 8 7 9 14 13 16 13 17 4 5 3 9 6 9 10 9 12 7 14 11 17 18 24 21 19
18 18 18 17 16 14 14 14 14 13 13 13 12 11 11 12 7 6 12 13 9 10 13 18 18 13 18 15 2 9 3 5 7 5 10 15 1 7 5 14 19 20 21 20 18
20 20 21 19 17 16 15 15 14 14 13 12 11 11 10 6 2 6 9 10 9 10 14 14 12 16 17 3 4 6 13 10 7 10 9 11 12 2 13 7 2 19 19 18 17
20 21 22 21 20 18 17 16 16 15 13 11 9 8 7 8 7 11 12 9 10 12 13 14 15 15 14 2 2 6 9 11 9 6 7 5 5 5 7 6 15 18 19 17 14
21 21 21 22 20 20 19 17 16 15 13 11 8 6 6 11 14 15 13 12 13 14 14 15 14 11 10 6 4 9 7 11 12 10 6 5 4 7 7 13 17 16 17 16 14
23 22 23 23 22 22 20 18 16 15 11 9 6 6 9 12 5 14 12 13 15 13 14 12 14 10 14 9 11 11 8 20 13 10 7 5 4 9 10 17 20 18 16 11 14
25 24 25 25 23 22 21 19 14 13 11 7 6 8 8 4 3 8 12 13 13 11 13 14 6 12 16 3 7 6 9 4 8 11 6 10 9 9 18 20 16 19 16 12 13
26 25 28 25 24 23 22 19 11 8 8 6 6 7 14 5 9 11 12 13 13 10 10 9 9 14 19 13 11 9 8 17 10 9 10 6 5 3 11 21 18 8 14 10 12
24 25 26 26 24 23 23 9 2 4 6 8 10 9 13 12 9 10 9 13 12 13 12 13 9 13 15 15 5 4 10 7 16 9 14 11 10 15 22 20 13 5 7 15 14
26 28 28 28 26 20 14 4 4 6 11 15 7 13 9 6 6 9 9 12 12 13 14 15 13 14 18 16 16 17 12 16 12 23 18 13 13 17 11 10 7 1 11 16 15
26 29 29 30 27 23 6 7 9 10 14 22 20 18 1 10 9 11 11 12 12 14 16 15 15 18 17 8 24 19 15 13 15 11 10 2 12 17 17 15 15 15 15 15 19
27 29 29 34 34 6 10 16 11 12 10 17 20 17 13 11 11 15 15 15 12 15 16 17 16 16 19 13 9 18 11 10 1 7 10 15 13 5 4 14 18 20 20 6 10
27 28 27 34 6 10 13 6 5 10 7 14 18 12 16 11 13 15 16 13 10 13 15 16 16 13 8 10 12 14 9 12 6 7 4 5 3 5 12 15 17 19 17 7 20
27 27 26 11 11 8 9 7 9 8 6 13 17 9 15 15 11 9 16 17 15 12 11 15 12 16 12 15 12 16 1 8 11 9 13 11 5 6 5 15 21 19 18 14 19
29 25 23 2 6 14 13 10 7 6 9 11 9 11 16 16 9 10 12 15 10 15 13 17 13 11 16 13 15 17 11 11 12 12 12 18 8 6 10 17 8 13 23 20 20
31 30 10 10 8 9 8 7 6 9 5 10 19 16 17 16 17 12 12 14 12 9 12 12 16 10 11 15 17 16 15 10 11 10 7 8 6 8 19 16 16 8 20 24 15
37 35 10 9 9 11 7 8 11 11 19 8 9 14 15 17 15 13 12 13 15 18 15 14 15 19 13 16 14 17 18 14 8 6 4 13 8 8 22 13 35 35 16 15 16
39 7 6 7 13 6 7 11 8 16 15 16 6 13 17 17 16 18 17 16 17 18 17 18 14 18 16 12 19 13 16 21 16 6 3 6 5 1 11 13 12 13 11 10 8
9 9 11 8 7 6 8 17 17 23 20 10 14 11 16 19 19 18 16 17 16 16 14 21 3 13 11 12 18 18 11 13 12 13 9 6 14 10 15 12 14 16 12 12 6
5 5 8 7 7 6 11 15 19 21 18 9 15 19 16 16 16 18 14 14 13 14 12 16 15 4 8 11 16 11 11 9 14 6 7 5 4 14 11 11 12 11 13 13 10
6 5 8 6 7 8 12 18 18 23 16 12 10 18 20 18 15 16 17 15 10 11 14 13 14 9 15 16 15 16 16 14 10 10 9 12 7 6 12 14 10 12 11 10 6
6 10 6 7 8 11 15 18 18 15 12 13 16 15 18 18 15 16 13 15 5 10 12 15 10 10 8 12 15 19 15 14 13 14 3 5 5 6 8 7 10 13 11 10 7
5 5 7 7 10 16 15 15 16 11 16 15 19 15 16 18 16 15 16 15 14 9 7 6 13 12 13 9 4 15 15 13 13 10 8 5 3 4 7 6 10 11 10 11 8
5 6 14 8 8 12 12 14 15 15 14 11 12 16 19 15 16 17 17 18 14 10 10 9 17 18 17 12 14 32 15 20 18 16 13 9 3 7 9 10 11 12 10 10 8
6 9 11 12 17 16 13 14 17 17 17 18 13 14 14 17 18 18 19 17 17 11 14 16 16 19 20 18 4 9 17 21 20 9 10 11 9 14 12 9 14 15 13 10 9
10 11 8 10 15 15 13 15 16 13 11 15 14 15 13 11 14 13 15 15 14 16 15 13 11 15 19 18 4 6 26 27 13 18 15 13 2 19 14 12 10 12 11 11 10
Wind_Direction
354 349 347 342 336 330 324 319 312 307 304 304 308 311 315 318 301 234 240 272 195 178 238 257 220 248 245 251 247 182 94 276 200 175 202 238 148 126 104 131 111 126 141 130 147
355 349 346 342 334 328 322 316 311 306 303 302 305 308 314 322 275 251 201 129 138 186 231 241 230 237 256 273 289 86 112 221 149 157 186 71 16 334 140 121 90 120 115 135 150
354 351 348 344 337 329 322 314 309 303 299 298 302 305 311 309 272 236 144 152 165 200 245 282 274 293 269 241 296 84 259 68 92 155 152 100 89 305 46 135 134 130 133 149 152
354 348 347 343 337 329 322 315 306 301 296 293 298 303 309 259 286 106 149 153 164 221 244 266 258 260 265 198 241 89 291 92 99 143 152 126 201 211 17 47 107 134 140 151 166
350 345 342 339 334 328 323 314 304 295 291 288 293 302 284 233 244 140 147 159 186 214 239 244 245 255 280 61 87 41 114 117 119 98 89 147 90 159 151 243 251 134 149 162 174
348 344 339 334 330 328 323 313 300 290 284 281 281 288 250 254 106 145 168 174 211 216 236 249 259 333 319 290 115 181 148 140 135 135 110 148 112 317 191 241 154 147 158 169 162
347 342 338 332 329 327 323 312 296 282 273 268 260 257 261 266 130 152 185 197 215 216 243 233 269 294 269 32 335 156 82 14 147 152 133 153 158 358 307 329 149 151 160 172 178
345 340 336 329 328 326 323 314 298 270 258 247 234 250 266 154 246 189 197 207 216 230 260 288 260 275 287 115 268 134 93 280 175 127 140 183 139 13 344 322 296 153 163 211 159
343 337 329 328 327 326 324 316 297 256 230 201 226 228 261 117 219 214 211 215 214 231 234 283 275 262 258 213 225 49 12 343 282 142 146 149 110 55 188 262 271 160 155 165 155
329 331 329 326 326 325 322 294 333 164 207 206 260 263 237 237 181 181 199 217 208 221 227 236 243 246 243 252 186 101 298 265 258 226 190 152 181 198 211 213 192 18 278 168 148
326 328 327 325 324 325 322 219 207 200 224 235 202 235 155 130 140 196 190 219 197 214 221 217 231 238 245 239 129 150 190 237 259 181 176 193 176 187 198 210 179 174 268 177 181
332 327 324 324 320 318 276 252 358 336 295 230 248 228 0 148 188 183 190 191 197 211 218 221 230 247 258 271 144 164 155 250 175 161 123 128 233 169 182 185 171 200 230 206 178
330 323 324 324 315 280 241 269 321 314 286 272 219 224 200 177 216 173 195 224 195 218 216 240 221 222 260 274 231 203 203 252 273 169 171 155 250 106 212 200 184 206 228 190 190
325 323 326 330 300 326 262 248 274 300 280 241 184 208 196 209 229 192 185 215 226 229 233 230 262 279 232 264 266 264 265 200 205 270 249 220 179 102 303 292 203 213 219 182 154
323 320 321 316 305 279 353 312 321 277 278 127 171 173 182 198 215 192 170 222 248 217 250 242 233 248 221 251 247 264 18 265 282 272 260 179 190 131 174 259 233 202 200 215 188
317 316 327 203 213 262 298 296 260 238 253 177 130 172 184 211 204 134 179 228 236 261 231 261 269 235 253 235 244 253 242 213 236 247 262 238 196 193 186 230 345 216 189 197 202
313 308 298 296 251 343 305 250 219 241 212 170 162 188 217 194 232 160 194 205 229 229 236 223 253 221 245 233 223 236 246 249 240 228 269 111 206 187 213 182 147 172 256 231 188
315 308 246 231 285 250 262 223 238 241 237 288 177 182 204 221 210 178 202 226 218 255 269 225 210 217 206 239 239 209 233 235 240 4 30 332 17 164 193 170 166 196 190 134 181
313 279 222 223 221 247 233 220 225 245 293 312 208 212 195 220 230 200 205 223 223 207 253 276 236 171 204 212 245 195 231 255 263 97 71 308 323 277 135 140 137 126 120 151 169
315 291 245 145 204 211 228 241 249 259 299 290 293 248 251 203 219 222 225 214 235 229 207 264 264 172 192 196 238 260 218 233 249 251 189 194 266 245 166 166 150 146 159 128 112
264 248 108 145 180 217 229 240 248 260 274 283 277 283 270 249 235 228 220 245 221 239 200 253 275 277 252 206 239 221 252 261 277 312 283 187 263 145 167 161 159 154 152 135 150
300 275 127 171 210 228 241 246 263 283 293 251 263 281 287 290 280 241 245 237 197 214 195 221 262 215 224 199 216 255 214 226 255 238 256 290 181 248 137 146 170 143 120 108 94
295 299 170 204 252 240 244 235 255 273 284 267 262 250 276 276 290 286 281 248 242 222 236 213 229 262 242 274 201 223 236 249 250 267 65 335 109 79 82 111 126 116 122 119 142
281 292 200 195 248 281 292 292 294 231 250 279 286 278 259 262 264 275 279 277 262 218 43 316 263 250 262 148 355 297 237 259 256 245 207 118 136 42 125 132 127 131 145 144 149
247 299 347 296 290 328 313 309 299 296 281 218 265 262 273 272 269 264 254 270 268 155 258 254 253 260 269 165 158 234 286 272 244 257 269 155 73 148 191 178 161 145 159 146 151
298 346 337 300 302 291 278 266 274 278 271 280 254 252 261 244 260 268 259 254 253 244 216 229 248 258 264 268 244 310 264 282 224 256 285 264 164 149 181 183 161 155 159 162 160
354 340 306 289 288 289 281 276 281 306 286 307 299 311 287 278 345 336 327 316 297 292 260 246 281 239 249 251 179 36 271 252 203 195 200 245 25 134 144 149 161 149 156 167 171